Temperature
15 15 15 15 15 15 15 16 16 16 16 16 16 16 16 16 16 16 16 16 16 15 15 16 16 16 16 16 16 16 16 16 15 16 15 15 15 15 15 15 15 15 15
15 15 15 15 15 15 15 15 15 16 16 16 16 16 16 16 16 16 16 15 15 15 15 15 15 15 15 16 15 15 15 15 15 15 15 15 15 15 15 15 15 15 15
15 15 15 15 15 15 15 15 15 15 16 16 16 16 15 15 15 16 15 15 15 15 15 15 15 15 15 15 15 15 15 15 15 15 15 15 15 15 15 15 14 14 15
14 14 15 15 15 15 15 15 15 15 15 15 15 15 15 15 15 15 15 15 15 15 15 15 15 15 15 15 15 15 15 14 14 14 14 14 15 14 15 14 14 14 14
14 14 14 14 14 14 14 15 15 15 15 15 15 15 15 15 15 15 15 15 15 15 15 15 15 15 15 15 15 15 14 14 14 14 14 14 14 14 14 14 14 14 14
13 14 14 14 14 14 14 14 14 15 15 15 15 15 15 15 15 15 15 15 15 15 15 15 15 15 15 15 14 14 14 14 14 14 14 14 14 14 14 14 14 14 14
13 13 13 13 14 14 14 14 14 14 14 14 15 15 15 15 15 15 15 15 15 15 15 15 15 15 15 14 14 14 14 13 14 14 14 14 14 14 14 14 14 14 14
13 13 13 13 13 13 13 13 14 14 14 14 14 14 14 14 14 14 14 14 14 14 14 14 14 14 14 14 14 14 13 13 13 13 13 14 14 14 14 14 14 14 14
12 12 12 13 13 13 13 13 13 13 13 14 14 14 14 14 14 14 14 14 14 14 14 14 14 14 14 14 14 13 13 13 13 13 13 13 13 14 14 14 14 14 14
11 12 12 12 12 12 12 13 13 13 13 13 13 13 14 14 14 14 14 14 14 14 14 14 14 14 14 14 14 13 13 13 13 13 13 13 13 13 13 13 13 13 13
11 11 11 11 11 12 12 12 12 12 13 13 13 13 13 13 13 13 13 13 13 13 13 14 14 14 14 13 13 13 13 13 12 13 13 13 13 13 13 13 13 13 13
10 10 10 11 11 11 11 12 12 12 12 12 12 13 13 13 13 13 13 13 13 13 13 13 13 13 13 13 13 12 12 12 12 12 12 13 13 13 13 13 13 13 13
9 9 10 10 10 11 11 11 11 11 11 12 12 12 12 12 12 12 12 13 13 13 13 13 13 13 13 13 12 12 12 12 12 12 12 12 12 13 13 13 13 13 13
9 9 9 9 10 10 10 10 11 11 11 11 11 11 12 12 12 12 12 12 12 12 12 12 12 12 12 12 12 12 12 12 12 12 12 12 12 12 12 12 12 12 13
8 8 9 9 9 9 9 10 10 10 10 11 11 11 11 11 11 11 12 12 12 12 12 12 12 12 12 12 12 11 11 11 12 12 12 12 12 12 12 12 12 12 12
8 8 8 8 9 9 9 9 9 10 10 10 10 11 11 11 11 11 11 12 12 12 12 12 11 11 11 11 11 11 11 11 11 11 12 12 12 12 12 12 12 12 12
7 7 8 8 8 8 9 9 9 9 10 10 10 10 10 10 11 11 11 11 11 11 11 11 11 11 11 11 11 11 11 11 11 11 11 11 11 11 11 11 11 11 11
6 7 7 7 8 8 8 8 9 9 9 9 9 10 10 10 10 10 10 11 11 11 11 11 11 11 11 10 11 11 11 11 11 11 11 11 11 11 11 11 11 11 11
6 6 7 7 7 7 8 8 8 8 9 9 9 9 9 10 10 10 10 10 10 10 11 11 11 10 10 10 10 10 10 10 10 10 10 10 11 11 11 11 11 11 11
6 6 6 7 7 7 7 7 7 8 8 8 8 9 9 9 9 9 10 10 10 10 10 10 10 10 10 10 9 9 10 10 10 10 10 10 10 10 11 11 11 11 11
5 6 6 6 6 6 7 7 7 7 7 7 8 8 8 9 9 9 9 9 9 10 10 10 10 9 9 9 9 9 9 9 9 10 10 10 10 10 10 10 10 10 10
5 5 5 6 6 6 6 6 6 6 6 7 7 8 8 8 8 9 9 9 9 9 9 9 9 9 9 9 9 9 8 8 9 9 9 9 9 10 10 10 10 10 10
4 4 4 5 5 5 6 6 6 6 6 6 7 7 8 8 8 8 8 9 9 9 9 9 9 9 9 9 9 9 8 8 8 8 9 9 9 9 9 9 10 10 10
4 4 4 4 4 5 5 5 5 5 5 6 6 7 7 7 7 7 8 8 8 8 8 8 9 9 8 8 8 8 9 9 8 8 8 8 9 9 9 9 9 9 10
3 3 4 4 4 4 4 5 5 5 5 5 5 6 6 7 7 7 7 7 8 8 8 8 8 8 8 8 8 8 8 8 9 8 7 8 8 8 8 9 9 9 9
3 3 3 3 3 4 4 4 4 4 4 4 5 5 5 6 6 7 7 7 7 7 7 7 8 8 7 8 8 8 8 8 8 8 8 7 7 8 8 8 8 9 9
Wind_Speed
4 5 4 5 5 6 7 8 9 9 9 9 10 10 10 11 11 12 12 12 12 13 14 15 16 16 16 17 17 18 18 18 19 19 19 18 18 18 18 18 19 18 20
4 5 5 5 5 6 7 8 9 9 9 9 9 9 9 10 11 11 12 12 12 13 14 15 16 16 16 16 15 16 16 16 16 18 19 18 18 18 19 19 18 17 20
5 6 6 6 6 6 7 8 9 9 9 9 9 9 9 10 10 11 11 11 12 13 14 15 15 16 15 15 14 14 14 13 13 15 15 15 16 18 18 19 19 19 19
5 6 6 6 7 7 7 8 8 8 8 8 8 8 9 9 10 10 10 11 12 13 14 14 15 15 15 14 13 12 11 11 11 12 12 14 15 16 17 18 18 19 19
6 6 7 7 7 7 7 8 8 7 8 8 8 8 8 8 9 10 10 10 11 13 13 14 14 14 14 13 11 10 9 9 10 11 14 15 15 16 17 17 18 18 18
6 7 6 6 7 7 7 7 7 7 7 7 8 7 7 8 8 9 10 10 11 12 13 13 13 13 13 11 10 9 9 9 11 12 14 14 15 16 17 17 17 18 18
6 7 6 6 6 7 7 6 6 6 6 6 7 7 7 7 8 8 9 10 11 11 12 12 13 12 12 10 9 8 8 10 11 12 13 14 15 16 17 17 17 17 17
6 7 6 6 6 6 6 6 6 5 5 6 6 6 7 7 7 8 9 10 10 11 12 12 12 12 11 9 8 7 8 9 11 12 13 13 15 16 16 16 16 17 17
6 6 6 5 6 6 6 6 5 5 5 5 5 5 6 7 7 7 9 10 10 11 11 12 11 11 10 9 7 6 8 9 11 11 11 12 14 15 15 15 15 15 16
5 5 5 5 5 5 5 6 5 5 5 4 5 5 5 6 7 7 8 9 10 11 11 12 11 11 10 8 5 5 6 8 11 11 11 12 14 14 14 14 14 14 14
4 4 4 4 4 4 4 4 5 4 4 4 4 5 5 5 6 6 7 9 10 11 11 11 11 10 9 7 5 4 5 7 10 10 11 12 13 13 13 13 13 13 13
3 3 3 3 3 3 2 3 3 3 2 3 3 4 3 4 5 6 7 10 10 10 11 11 10 9 7 5 4 4 4 8 10 10 10 12 12 12 12 13 12 12 12
1 2 2 3 3 3 2 1 1 2 2 2 2 2 3 4 5 6 6 8 9 9 9 9 9 7 6 5 5 4 5 8 9 9 10 11 11 11 12 12 12 11 11
1 1 1 2 2 3 3 1 1 2 2 2 1 1 2 2 3 4 4 6 7 7 7 7 6 6 6 6 6 5 7 8 9 10 9 10 10 11 11 11 10 10 10
1 1 1 2 1 2 2 2 2 1 1 1 1 1 1 1 2 3 3 4 5 6 6 5 4 4 5 5 6 7 6 7 9 10 9 10 9 9 9 9 9 9 9
1 1 1 1 1 1 1 1 1 1 1 1 0 1 1 1 2 2 2 3 3 6 6 5 4 4 4 5 5 7 6 6 8 10 9 9 9 8 7 7 7 8 8
1 0 1 1 2 1 1 1 1 1 1 1 1 1 2 1 2 2 2 2 3 6 6 5 4 5 4 4 4 5 6 6 7 8 9 8 8 7 7 7 6 7 7
1 0 1 1 1 1 1 1 1 1 1 1 1 1 1 1 2 2 2 2 4 5 5 4 3 3 3 3 4 3 4 5 6 6 7 7 7 7 7 6 6 6 6
1 0 0 1 0 1 1 2 1 1 1 1 1 1 0 1 1 3 2 3 4 4 3 4 4 4 4 4 4 3 3 3 3 4 5 6 6 7 7 6 6 5 5
1 0 0 1 0 1 1 1 1 1 0 1 1 0 0 1 1 3 3 3 3 3 4 4 4 4 4 4 4 4 2 2 2 3 3 4 5 5 6 6 6 5 5
1 1 0 1 1 0 0 0 0 1 1 1 1 1 1 1 1 2 2 3 3 4 4 5 5 5 4 4 4 3 2 2 2 1 2 3 4 4 5 5 5 5 5
1 1 1 1 1 0 0 1 2 2 2 1 0 1 2 2 2 2 3 3 3 4 5 5 5 4 3 3 3 4 2 0 1 0 1 2 2 3 4 4 4 4 4
2 2 2 1 2 1 1 0 1 1 1 1 1 1 1 2 3 1 2 3 3 4 5 6 5 5 5 4 3 3 3 3 1 1 1 1 2 1 2 4 4 4 4
3 2 2 2 2 2 1 1 1 2 2 2 2 2 1 1 2 2 2 3 3 4 5 6 5 4 6 6 4 2 2 3 3 2 1 2 2 2 1 2 3 4 5
2 2 2 2 2 1 1 2 2 2 2 2 1 2 2 1 1 2 2 2 3 3 5 5 5 5 4 5 4 3 2 1 2 2 2 2 2 2 3 3 3 4 4
1 1 2 2 2 2 2 2 3 2 2 2 2 3 2 2 1 2 2 2 3 3 4 5 5 6 5 4 3 3 3 3 3 2 3 3 3 2 3 3 3 4 4
Wind_Direction
81 86 100 86 82 91 96 100 101 97 92 89 87 85 89 93 96 98 99 99 97 97 96 95 91 89 87 85 84 84 83 81 83 83 81 79 80 80 81 82 81 79 80
94 104 110 98 91 97 103 105 104 103 99 95 92 90 91 97 100 102 102 101 99 98 97 96 93 90 89 88 87 88 88 87 88 90 85 79 78 79 80 80 83 85 82
85 101 110 103 100 100 104 109 108 107 103 99 96 93 93 99 104 104 104 102 101 99 98 96 94 91 89 89 89 89 89 89 90 95 90 86 82 82 83 83 84 85 83
88 101 107 103 106 105 106 112 113 112 110 106 101 99 97 98 106 105 105 104 102 100 99 98 96 94 91 89 89 88 85 80 84 90 88 87 87 87 86 86 85 85 83
80 91 103 102 104 105 110 113 115 116 116 111 106 104 103 100 104 107 103 102 103 103 102 100 98 95 92 90 88 85 77 72 75 80 84 85 88 90 88 87 87 86 84
74 81 100 106 103 99 100 111 113 115 117 117 113 110 109 103 103 109 106 105 106 107 106 104 100 97 94 90 85 77 68 67 76 81 86 89 92 93 90 88 88 88 86
69 65 89 92 105 101 95 96 109 117 118 121 120 116 116 109 105 108 111 109 111 112 112 109 105 101 96 91 83 67 58 69 81 80 82 88 95 96 93 91 89 89 87
75 64 74 72 84 99 99 91 89 106 119 121 119 119 117 113 108 111 117 117 116 116 116 113 109 106 100 94 85 63 53 67 87 86 84 88 98 98 96 93 91 90 88
74 69 62 67 78 78 81 86 85 85 105 118 119 117 117 120 115 115 123 123 122 119 118 117 113 109 105 100 88 66 60 66 85 88 89 91 99 99 97 96 93 92 91
75 73 63 56 70 74 73 77 78 85 88 109 124 124 121 123 122 121 126 126 124 123 123 121 118 114 111 107 97 76 68 72 85 85 89 94 100 99 97 97 96 95 94
70 74 66 52 44 64 78 82 73 89 96 101 123 133 131 130 129 126 128 130 128 128 129 128 124 121 117 115 108 89 79 83 88 86 91 100 104 103 101 99 99 98 97
69 68 58 53 45 48 75 80 84 83 105 115 129 144 145 133 135 132 128 134 133 134 135 135 132 131 126 125 116 101 93 94 88 91 98 108 109 107 104 102 102 100 100
93 74 59 32 28 30 26 67 57 73 75 92 117 114 124 130 135 135 131 137 138 140 138 137 137 141 138 129 119 106 90 91 92 92 99 108 112 112 109 106 105 105 105
50 86 64 29 30 17 19 16 38 36 47 46 62 98 105 122 133 138 140 145 148 149 142 143 150 148 136 126 116 99 89 94 99 99 100 107 112 112 113 110 107 110 111
327 81 48 24 34 17 18 4 35 23 34 71 27 28 101 111 140 143 146 136 146 146 144 149 148 135 124 122 114 100 89 97 106 106 108 107 109 114 116 116 115 115 116
316 43 7 27 7 16 14 4 9 31 44 76 39 1 14 102 109 122 130 126 140 149 153 151 135 115 108 109 104 103 98 97 107 113 115 112 107 111 113 116 120 123 122
276 115 346 12 12 16 14 350 6 336 85 63 25 11 26 81 123 122 136 138 146 156 153 140 124 114 109 109 110 104 100 95 96 107 115 119 117 109 114 116 117 126 130
283 203 321 330 356 8 360 346 9 9 29 45 72 48 39 36 139 129 142 158 156 154 146 142 141 133 120 113 110 100 96 97 94 100 108 118 124 123 118 118 116 121 128
291 263 263 313 290 5 7 2 7 34 17 43 73 48 135 78 138 130 133 159 161 152 146 151 144 139 132 126 122 112 99 95 94 101 105 111 120 131 136 135 125 123 127
292 268 198 333 338 47 47 38 26 56 21 78 93 131 185 150 145 143 153 162 154 159 160 151 148 140 137 134 124 107 89 87 86 97 110 112 117 133 140 147 143 142 138
278 176 227 321 320 55 97 108 256 264 269 227 174 179 184 187 189 168 163 166 167 163 164 158 152 145 139 128 116 106 60 53 81 86 103 113 116 125 129 135 140 148 157
208 190 219 292 298 251 228 235 235 249 248 249 195 179 192 201 203 189 177 178 180 165 160 160 156 157 154 150 147 142 144 114 314 183 128 138 137 133 131 130 135 143 150
212 199 234 264 287 268 232 256 305 299 272 256 231 214 221 207 200 200 205 175 178 174 176 170 164 170 171 175 168 154 159 180 175 208 210 165 151 150 153 154 148 155 157
222 205 213 235 272 271 231 226 221 238 242 260 247 232 227 207 201 206 228 189 182 173 177 178 168 171 171 180 189 211 182 147 152 162 209 201 183 187 197 171 163 162 161
229 212 211 230 258 266 259 234 225 242 249 265 256 232 212 194 186 204 230 207 192 181 177 179 174 172 179 182 184 191 187 172 164 159 188 203 210 211 213 188 169 169 170
272 234 227 236 254 248 250 251 241 232 230 233 252 241 218 211 218 213 219 207 196 191 181 183 182 179 182 183 183 179 176 179 190 173 183 195 206 220 218 193 172 173 180
Height
1518 1519 1520 1521 1522 1524 1525 1527 1528 1529 1530 1531 1532 1533 1534 1535 1536 1537 1538 1539 1539 1540 1541 1542 1542 1543 1543 1544 1545 1545 1546 1546 1547 1547 1547 1547 1548 1548 1548 1548 1549 1549 1549
1518 1519 1520 1521 1523 1524 1526 1527 1528 1530 1531 1532 1533 1534 1535 1536 1537 1538 1539 1540 1541 1542 1543 1544 1544 1545 1545 1546 1547 1548 1548 1549 1549 1549 1549 1550 1550 1550 1551 1551 1551 1551 1552
1517 1518 1519 1521 1523 1524 1526 1528 1529 1530 1531 1532 1533 1535 1536 1537 1538 1539 1541 1542 1543 1544 1544 1545 1546 1547 1547 1548 1549 1550 1551 1551 1551 1552 1552 1552 1552 1553 1553 1553 1553 1554 1554
1517 1518 1519 1521 1522 1524 1526 1528 1529 1530 1532 1533 1534 1535 1537 1538 1539 1540 1542 1543 1544 1545 1546 1547 1548 1548 1549 1550 1551 1552 1552 1553 1553 1554 1554 1554 1554 1555 1555 1556 1556 1556 1556
1517 1518 1519 1520 1522 1524 1526 1528 1529 1530 1532 1533 1534 1536 1537 1538 1540 1541 1542 1544 1545 1546 1547 1548 1549 1550 1551 1551 1552 1553 1554 1555 1555 1556 1556 1556 1556 1557 1557 1557 1558 1558 1558
1517 1518 1519 1520 1522 1523 1525 1527 1529 1530 1532 1533 1535 1536 1537 1539 1540 1541 1543 1544 1545 1547 1548 1549 1550 1551 1552 1553 1554 1555 1556 1556 1557 1557 1557 1558 1558 1559 1559 1559 1560 1560 1560
1516 1518 1519 1520 1521 1523 1525 1526 1528 1530 1531 1533 1534 1536 1537 1539 1540 1542 1543 1545 1546 1547 1548 1550 1551 1552 1553 1554 1555 1556 1557 1558 1558 1558 1559 1559 1560 1560 1561 1561 1562 1562 1562
1516 1517 1518 1519 1521 1522 1524 1526 1528 1529 1531 1533 1534 1536 1537 1539 1540 1542 1543 1545 1546 1547 1549 1550 1551 1553 1554 1555 1556 1557 1558 1559 1559 1559 1560 1561 1562 1562 1562 1563 1563 1564 1564
1516 1516 1517 1519 1520 1521 1523 1525 1527 1529 1530 1532 1534 1535 1537 1538 1540 1541 1543 1545 1546 1547 1549 1550 1552 1553 1554 1555 1557 1558 1559 1559 1560 1560 1561 1562 1563 1563 1564 1564 1565 1565 1566
1515 1515 1516 1518 1519 1520 1522 1524 1526 1528 1529 1531 1533 1534 1536 1538 1539 1541 1543 1544 1546 1547 1549 1550 1552 1553 1554 1556 1557 1558 1560 1560 1561 1561 1562 1563 1564 1565 1565 1566 1566 1567 1567
1514 1515 1515 1516 1517 1519 1520 1522 1524 1526 1528 1530 1532 1533 1535 1537 1538 1540 1542 1544 1545 1547 1549 1550 1552 1553 1554 1556 1557 1559 1560 1561 1561 1562 1563 1564 1565 1565 1566 1567 1567 1568 1568
1512 1513 1514 1515 1516 1517 1519 1521 1523 1524 1526 1528 1530 1532 1534 1535 1537 1539 1541 1543 1544 1546 1548 1550 1551 1553 1554 1556 1557 1559 1560 1561 1562 1563 1563 1564 1565 1566 1567 1567 1568 1568 1569
1511 1512 1513 1514 1515 1516 1517 1519 1521 1522 1524 1526 1528 1530 1532 1533 1535 1537 1539 1541 1543 1545 1547 1549 1550 1552 1554 1555 1557 1558 1560 1561 1561 1563 1564 1565 1566 1566 1567 1568 1569 1569 1570
1510 1510 1511 1512 1513 1514 1516 1517 1518 1520 1522 1524 1526 1528 1530 1532 1534 1535 1537 1539 1541 1544 1546 1547 1549 1551 1553 1555 1556 1558 1559 1560 1561 1562 1564 1565 1566 1567 1568 1568 1569 1570 1570
1507 1508 1509 1510 1511 1512 1514 1515 1516 1518 1519 1522 1524 1526 1528 1529 1531 1534 1535 1537 1539 1542 1544 1546 1548 1550 1552 1554 1555 1557 1558 1560 1561 1562 1563 1565 1566 1567 1568 1569 1569 1570 1570
1505 1506 1508 1508 1509 1510 1511 1513 1514 1516 1517 1519 1521 1523 1525 1527 1529 1531 1533 1535 1537 1540 1542 1544 1547 1548 1550 1552 1554 1555 1557 1559 1560 1561 1562 1564 1565 1566 1567 1568 1569 1570 1570
1503 1504 1505 1506 1507 1508 1509 1510 1512 1513 1515 1516 1518 1520 1523 1525 1527 1529 1531 1533 1536 1538 1540 1543 1545 1547 1549 1550 1552 1554 1556 1557 1559 1560 1561 1563 1564 1565 1566 1568 1569 1569 1570
1501 1502 1503 1504 1505 1506 1507 1508 1509 1510 1512 1514 1515 1517 1520 1522 1524 1526 1528 1531 1533 1536 1538 1540 1543 1545 1547 1549 1550 1552 1554 1556 1558 1559 1560 1562 1563 1564 1565 1567 1568 1569 1569
1498 1499 1500 1501 1502 1503 1504 1505 1507 1508 1509 1510 1512 1514 1517 1519 1521 1523 1525 1528 1531 1533 1536 1538 1541 1543 1545 1547 1549 1551 1553 1555 1556 1558 1559 1560 1561 1563 1564 1565 1566 1567 1568
1496 1497 1497 1498 1500 1500 1501 1502 1504 1505 1506 1507 1509 1511 1514 1516 1518 1520 1522 1525 1527 1530 1532 1535 1538 1541 1543 1545 1547 1549 1551 1553 1555 1556 1557 1558 1560 1561 1562 1563 1564 1565 1566
1493 1493 1494 1495 1496 1497 1498 1499 1500 1501 1502 1504 1506 1508 1510 1513 1515 1517 1518 1521 1524 1526 1529 1531 1535 1537 1540 1543 1545 1546 1549 1551 1552 1554 1555 1556 1557 1559 1560 1561 1562 1563 1564
1490 1490 1491 1492 1493 1494 1495 1496 1497 1498 1499 1501 1503 1505 1507 1509 1511 1513 1515 1517 1520 1522 1525 1528 1531 1534 1537 1539 1542 1544 1546 1549 1550 1552 1553 1554 1555 1556 1557 1559 1560 1561 1562
1487 1488 1489 1489 1490 1491 1492 1493 1494 1495 1496 1497 1499 1501 1503 1505 1507 1509 1511 1513 1516 1518 1521 1524 1527 1530 1532 1536 1539 1541 1543 1544 1547 1549 1550 1551 1553 1554 1555 1556 1557 1558 1560
1485 1486 1486 1487 1487 1488 1489 1489 1490 1491 1492 1493 1495 1497 1499 1501 1503 1505 1508 1510 1512 1514 1517 1520 1523 1526 1529 1531 1534 1537 1540 1540 1543 1545 1547 1549 1550 1551 1552 1553 1554 1556 1557
1483 1483 1484 1484 1484 1485 1486 1486 1487 1488 1488 1490 1491 1493 1495 1497 1499 1501 1504 1506 1508 1511 1513 1516 1519 1522 1524 1527 1529 1533 1535 1538 1539 1541 1543 1545 1547 1548 1549 1550 1551 1553 1554
1480 1480 1481 1481 1481 1481 1482 1483 1483 1484 1485 1486 1487 1489 1490 1492 1494 1497 1499 1501 1504 1506 1509 1512 1515 1517 1520 1523 1526 1528 1531 1533 1535 1537 1539 1541 1543 1545 1546 1547 1548 1549 1551